When you browse on this site, cookies collect data to enhance your experience and personalize the content and advertising you see.
Visit our Privacy Policy to learn more. By continuing to use the site, you agree to this use of cookies and data.
  • In Austria
  • List of Countries
  • For 7 days
  • Water Temperature
  • Weather Map
  • News
  • Weather Widgets
  • user-avatar
    Login

    Hourly Weather Malanje

    Today, 2 June, Tuesday

    Time Temperature Precipitation Wind Pressure Humidity
    00:00 +22°C° 0 mm 1 mps 667 mmHg 50%
    01:00 +22°C° 0 mm 1 mps 667 mmHg 50%
    02:00 +21°C° 0 mm 1 mps 667 mmHg 51%
    03:00 +21°C° 0 mm 1 mps 667 mmHg 53%
    04:00 +20°C° 0 mm 1 mps 666 mmHg 54%
    05:00 +20°C° 0 mm 1 mps 667 mmHg 55%
    06:00 +20°C° 0 mm 1 mps 667 mmHg 56%
    07:00 +21°C° 0 mm 1 mps 668 mmHg 56%
    08:00 +23°C° 0 mm 2 mps 668 mmHg 49%
    09:00 +25°C° 0 mm 3 mps 668 mmHg 42%
    10:00 +28°C° 0 mm 4 mps 669 mmHg 36%
    11:00 +29°C° 0 mm 3 mps 668 mmHg 33%
    12:00 +30°C° 0 mm 3 mps 668 mmHg 30%
    13:00 +31°C° 0 mm 2 mps 668 mmHg 27%
    14:00 +31°C° 0 mm 2 mps 667 mmHg 27%
    15:00 +31°C° 0 mm 2 mps 666 mmHg 28%
    16:00 +30°C° 0 mm 2 mps 666 mmHg 28%
    17:00 +28°C° 0 mm 1 mps 666 mmHg 33%
    18:00 +25°C° 0 mm 1 mps 665 mmHg 38%
    19:00 +21°C° 0 mm 0 mps 665 mmHg 43%
    20:00 +20°C° 0 mm 0 mps 665 mmHg 44%
    21:00 +19°C° 0 mm 0 mps 666 mmHg 45%
    22:00 +21°C° 0 mm 1 mps 666 mmHg 47%
    23:00 +20°C° 0 mm 1 mps 666 mmHg 48%

    Tomorrow, 3 June, Wednesday

    Time Temperature Precipitation Wind Pressure Humidity
    00:00 +20°C° 0 mm 1 mps 666 mmHg 49%
    01:00 +19°C° 0 mm 1 mps 666 mmHg 50%
    02:00 +18°C° 0 mm 1 mps 665 mmHg 52%
    03:00 +18°C° 0 mm 1 mps 665 mmHg 54%
    04:00 +16°C° 0 mm 1 mps 665 mmHg 56%
    05:00 +16°C° 0 mm 1 mps 665 mmHg 56%
    06:00 +16°C° 0 mm 1 mps 666 mmHg 56%
    07:00 +18°C° 0 mm 1 mps 666 mmHg 56%
    08:00 +21°C° 0 mm 1 mps 667 mmHg 50%
    09:00 +24°C° 0 mm 2 mps 667 mmHg 44%
    10:00 +27°C° 0 mm 2 mps 668 mmHg 38%
    11:00 +29°C° 0 mm 2 mps 668 mmHg 34%
    12:00 +31°C° 0 mm 2 mps 668 mmHg 31%
    13:00 +33°C° 0 mm 1 mps 667 mmHg 28%
    14:00 +32°C° 0 mm 1 mps 667 mmHg 29%
    15:00 +31°C° 0 mm 1 mps 666 mmHg 30%
    16:00 +29°C° 0 mm 0 mps 665 mmHg 31%
    17:00 +27°C° 0 mm 0 mps 666 mmHg 35%
    18:00 +25°C° 0 mm 0 mps 666 mmHg 38%
    19:00 +23°C° 0 mm 0 mps 666 mmHg 41%
    20:00 +25°C° 0 mm 1 mps 666 mmHg 44%
    21:00 +24°C° 0 mm 1 mps 666 mmHg 47%
    22:00 +24°C° 0 mm 2 mps 666 mmHg 50%
    23:00 +21°C° 0 mm 2 mps 666 mmHg 63%

    Day after tomorrow, 4 June, Thursday

    Time Temperature Precipitation Wind Pressure Humidity
    00:00 +20°C° 0 mm 2 mps 666 mmHg 75%
    01:00 +18°C° 0 mm 2 mps 665 mmHg 87%
    02:00 +18°C° 0 mm 2 mps 665 mmHg 90%
    03:00 +18°C° 0 mm 2 mps 665 mmHg 92%
    04:00 +18°C° 0 mm 2 mps 665 mmHg 95%
    05:00 +18°C° 0 mm 2 mps 665 mmHg 92%
    06:00 +19°C° 0 mm 1 mps 666 mmHg 90%
    07:00 +20°C° 0 mm 1 mps 667 mmHg 87%
    08:00 +23°C° 0 mm 1 mps 667 mmHg 74%
    09:00 +25°C° 0 mm 1 mps 668 mmHg 61%
    10:00 +28°C° 0 mm 1 mps 669 mmHg 48%
    11:00 +30°C° 0 mm 1 mps 668 mmHg 42%
    12:00 +31°C° 0 mm 1 mps 668 mmHg 36%
    13:00 +33°C° 0 mm 1 mps 668 mmHg 30%
    14:00 +32°C° 0 mm 1 mps 667 mmHg 32%
    15:00 +31°C° 0 mm 1 mps 666 mmHg 34%
    16:00 +30°C° 0 mm 1 mps 666 mmHg 36%
    17:00 +28°C° 0 mm 1 mps 666 mmHg 40%
    18:00 +26°C° 0 mm 1 mps 666 mmHg 44%
    19:00 +22°C° 0 mm 0 mps 666 mmHg 48%
    20:00 +21°C° 0 mm 0 mps 666 mmHg 51%
    21:00 +20°C° 0 mm 0 mps 666 mmHg 53%
    22:00 +20°C° 0 mm 0 mps 666 mmHg 55%
    23:00 +19°C° 0 mm 0 mps 666 mmHg 59%

    5 June, Friday

    Time Temperature Precipitation Wind Pressure Humidity
    00:00 +20°C° 0 mm 1 mps 666 mmHg 63%
    01:00 +20°C° 0 mm 1 mps 666 mmHg 68%
    02:00 +19°C° 0 mm 1 mps 666 mmHg 72%
    03:00 +19°C° 0 mm 1 mps 665 mmHg 77%
    04:00 +18°C° 0 mm 1 mps 665 mmHg 82%
    05:00 +19°C° 0 mm 1 mps 666 mmHg 78%
    06:00 +19°C° 0 mm 1 mps 666 mmHg 74%
    07:00 +19°C° 0 mm 1 mps 667 mmHg 70%
    08:00 +23°C° 0 mm 1 mps 668 mmHg 59%
    09:00 +26°C° 0 mm 2 mps 668 mmHg 48%
    10:00 +29°C° 0 mm 2 mps 669 mmHg 37%
    11:00 +30°C° 0 mm 2 mps 669 mmHg 34%
    12:00 +32°C° 0 mm 2 mps 668 mmHg 31%
    13:00 +34°C° 0 mm 2 mps 668 mmHg 28%
    14:00 +34°C° 0 mm 2 mps 667 mmHg 29%
    15:00 +32°C° 0 mm 1 mps 667 mmHg 30%
    16:00 +31°C° 0 mm 1 mps 666 mmHg 31%
    17:00 +29°C° 0 mm 1 mps 666 mmHg 35%
    18:00 +27°C° 0 mm 1 mps 666 mmHg 39%
    19:00 +23°C° 0 mm 0 mps 666 mmHg 43%
    20:00 +22°C° 0 mm 0 mps 666 mmHg 46%
    21:00 +21°C° 0 mm 0 mps 667 mmHg 48%
    22:00 +20°C° 0 mm 0 mps 667 mmHg 51%
    23:00 +22°C° 0 mm 1 mps 666 mmHg 59%

    6 June, Saturday

    Time Temperature Precipitation Wind Pressure Humidity
    00:00 +21°C° 0 mm 1 mps 666 mmHg 67%
    01:00 +20°C° 0 mm 1 mps 666 mmHg 75%
    02:00 +19°C° 0 mm 1 mps 666 mmHg 79%
    03:00 +19°C° 0 mm 1 mps 665 mmHg 84%
    04:00 +18°C° 0 mm 1 mps 665 mmHg 88%
    05:00 +19°C° 0 mm 1 mps 666 mmHg 82%
    06:00 +19°C° 0 mm 1 mps 666 mmHg 77%
    07:00 +19°C° 0 mm 1 mps 667 mmHg 71%
    08:00 +21°C° 0 mm 2 mps 668 mmHg 59%
    09:00 +25°C° 0 mm 2 mps 668 mmHg 46%
    10:00 +29°C° 0 mm 3 mps 669 mmHg 34%
    11:00 +30°C° 0 mm 2 mps 669 mmHg 31%
    12:00 +32°C° 0 mm 2 mps 668 mmHg 27%
    13:00 +34°C° 0 mm 2 mps 668 mmHg 24%
    14:00 +34°C° 0 mm 2 mps 667 mmHg 24%
    15:00 +32°C° 0 mm 2 mps 667 mmHg 25%
    16:00 +32°C° 0 mm 2 mps 666 mmHg 25%
    17:00 +29°C° 0 mm 1 mps 666 mmHg 30%
    18:00 +26°C° 0 mm 1 mps 666 mmHg 35%
    19:00 +24°C° 0 mm 1 mps 666 mmHg 41%
    20:00 +23°C° 0 mm 1 mps 666 mmHg 42%
    21:00 +22°C° 0 mm 1 mps 666 mmHg 43%
    22:00 +22°C° 0 mm 1 mps 666 mmHg 44%
    23:00 +21°C° 0 mm 1 mps 666 mmHg 51%

    7 June, Sunday

    Time Temperature Precipitation Wind Pressure Humidity
    00:00 +20°C° 0 mm 1 mps 666 mmHg 57%
    01:00 +20°C° 0 mm 1 mps 666 mmHg 63%
    02:00 +19°C° 0 mm 1 mps 665 mmHg 69%
    03:00 +18°C° 0 mm 1 mps 665 mmHg 74%
    04:00 +18°C° 0 mm 1 mps 665 mmHg 79%
    05:00 +17°C° 0 mm 2 mps 666 mmHg 71%
    06:00 +17°C° 0 mm 2 mps 666 mmHg 63%
    07:00 +17°C° 0 mm 2 mps 666 mmHg 55%
    08:00 +20°C° 0 mm 3 mps 667 mmHg 47%
    09:00 +24°C° 0 mm 3 mps 668 mmHg 38%
    10:00 +27°C° 0 mm 4 mps 669 mmHg 29%
    11:00 +29°C° 0 mm 3 mps 668 mmHg 27%
    12:00 +31°C° 0 mm 3 mps 668 mmHg 24%
    13:00 +32°C° 0 mm 2 mps 667 mmHg 22%
    14:00 +32°C° 0 mm 2 mps 667 mmHg 22%
    15:00 +32°C° 0 mm 2 mps 667 mmHg 22%
    16:00 +31°C° 0 mm 1 mps 666 mmHg 22%
    17:00 +28°C° 0 mm 1 mps 666 mmHg 28%
    18:00 +26°C° 0 mm 1 mps 666 mmHg 33%
    19:00 +23°C° 0 mm 1 mps 665 mmHg 38%
    20:00 +22°C° 0 mm 1 mps 666 mmHg 39%
    21:00 +21°C° 0 mm 1 mps 666 mmHg 40%
    22:00 +19°C° 0 mm 0 mps 666 mmHg 41%
    23:00 +20°C° 0 mm 1 mps 666 mmHg 42%
    Show more